TimeCST,TemperatureF,Dew PointF,Humidity,Sea Level PressureIn,VisibilityMPH,Wind Direction,Wind SpeedMPH,Gust SpeedMPH,PrecipitationIn,Events,Conditions,WindDirDegrees,DateUTC
12:53 AM,46.0,34.0,63,29.95,10.0,SW,6.9,-,N/A,,Overcast,220,2013-12-29 06:53:00
1:53 AM,46.0,35.1,66,29.96,10.0,WSW,8.1,-,N/A,,Overcast,250,2013-12-29 07:53:00
2:53 AM,44.1,35.1,71,29.95,10.0,SW,9.2,-,N/A,,Overcast,220,2013-12-29 08:53:00
3:01 AM,44.1,34.0,68,29.95,10.0,SW,10.4,-,N/A,,Overcast,220,2013-12-29 09:01:00
3:53 AM,44.1,35.1,71,29.96,10.0,West,9.2,-,N/A,,Overcast,270,2013-12-29 09:53:00
4:17 AM,42.1,34.0,73,29.99,10.0,NNW,15.0,-,N/A,,Overcast,330,2013-12-29 10:17:00
4:53 AM,37.9,30.9,76,30.01,10.0,North,16.1,-,N/A,,Overcast,350,2013-12-29 10:53:00
5:30 AM,35.1,28.9,78,30.02,10.0,North,18.4,-,N/A,,Overcast,350,2013-12-29 11:30:00
5:53 AM,33.1,28.0,82,30.06,10.0,NNW,19.6,26.5,N/A,,Overcast,340,2013-12-29 11:53:00
6:12 AM,32.0,26.1,79,30.06,10.0,NNW,20.7,27.6,N/A,,Overcast,340,2013-12-29 12:12:00
6:53 AM,30.0,24.1,79,30.11,10.0,North,20.7,26.5,N/A,,Overcast,360,2013-12-29 12:53:00
7:53 AM,26.1,19.9,78,30.17,10.0,NNW,18.4,23.0,N/A,,Overcast,340,2013-12-29 13:53:00
8:53 AM,24.1,18.0,77,30.20,10.0,North,18.4,-,N/A,,Overcast,350,2013-12-29 14:53:00
9:53 AM,24.1,17.1,75,30.24,10.0,NNW,16.1,-,N/A,,Overcast,340,2013-12-29 15:53:00
10:53 AM,23.0,15.1,72,30.26,10.0,North,13.8,-,N/A,,Overcast,360,2013-12-29 16:53:00
11:53 AM,21.9,15.1,75,30.26,10.0,North,18.4,-,N/A,,Overcast,350,2013-12-29 17:53:00
12:53 PM,21.9,14.0,72,30.24,10.0,North,10.4,-,N/A,,Overcast,10,2013-12-29 18:53:00
1:53 PM,23.0,12.9,65,30.26,10.0,NNW,12.7,-,N/A,,Overcast,330,2013-12-29 19:53:00
2:53 PM,23.0,12.9,65,30.27,10.0,North,12.7,-,N/A,,Overcast,360,2013-12-29 20:53:00
3:53 PM,23.0,12.9,65,30.28,10.0,NNW,15.0,-,N/A,,Overcast,340,2013-12-29 21:53:00
4:53 PM,21.9,12.9,68,30.31,10.0,NNW,12.7,-,N/A,,Overcast,340,2013-12-29 22:53:00
5:53 PM,21.9,12.0,66,30.33,10.0,North,9.2,-,N/A,,Overcast,350,2013-12-29 23:53:00
6:53 PM,21.9,12.0,66,30.34,10.0,North,8.1,-,N/A,,Scattered Clouds,10,2013-12-30 00:53:00
7:53 PM,21.9,12.0,66,30.34,10.0,North,8.1,-,N/A,,Partly Cloudy,360,2013-12-30 01:53:00
8:53 PM,19.9,9.0,62,30.34,10.0,North,10.4,-,N/A,,Clear,360,2013-12-30 02:53:00
9:53 PM,18.0,7.0,62,30.34,10.0,North,8.1,-,N/A,,Clear,360,2013-12-30 03:53:00
10:53 PM,17.1,6.1,62,30.34,10.0,North,8.1,-,N/A,,Partly Cloudy,10,2013-12-30 04:53:00
11:53 PM,16.0,3.0,57,30.32,10.0,North,8.1,-,N/A,,Clear,10,2013-12-30 05:53:00